Hourly Weather Aarle

Today, 5 December, Saturday

Time Temperature Precipitation Wind Pressure Humidity
00:00 +2°C° 0 mm 2 mps 741 mmHg 88%
01:00 +3°C° 0 mm 1 mps 741 mmHg 88%
02:00 +3°C° 0 mm 1 mps 741 mmHg 89%
03:00 +3°C° 0 mm 1 mps 742 mmHg 89%
04:00 +2°C° 0 mm 2 mps 742 mmHg 89%
05:00 +2°C° 0 mm 2 mps 743 mmHg 89%
06:00 +2°C° 0 mm 2 mps 743 mmHg 90%
07:00 +2°C° 0 mm 3 mps 744 mmHg 89%
08:00 +2°C° 0 mm 3 mps 744 mmHg 88%
09:00 +1°C° 0 mm 4 mps 744 mmHg 87%
10:00 +3°C° 0 mm 4 mps 745 mmHg 81%
11:00 +4°C° 0 mm 4 mps 745 mmHg 74%
12:00 +5°C° 0 mm 4 mps 746 mmHg 67%
13:00 +4°C° 0 mm 3 mps 746 mmHg 70%
14:00 +4°C° 0 mm 3 mps 746 mmHg 72%
15:00 +4°C° 0 mm 2 mps 746 mmHg 75%
16:00 +3°C° 0 mm 3 mps 747 mmHg 77%
17:00 +2°C° 0 mm 3 mps 747 mmHg 79%
18:00 +2°C° 0 mm 3 mps 747 mmHg 81%
19:00 +1°C° 0 mm 3 mps 748 mmHg 82%
20:00 +1°C° 0 mm 3 mps 748 mmHg 84%
21:00 +2°C° 0 mm 2 mps 748 mmHg 85%
22:00 +2°C° 0 mm 2 mps 748 mmHg 86%
23:00 +1°C° 0 mm 2 mps 748 mmHg 87%

Tomorrow, 6 December, Sunday

Time Temperature Precipitation Wind Pressure Humidity
00:00 +1°C° 0 mm 2 mps 749 mmHg 87%
01:00 +1°C° 0 mm 2 mps 748 mmHg 88%
02:00 +1°C° 0 mm 2 mps 748 mmHg 89%
03:00 0°C° 0 mm 3 mps 748 mmHg 90%
04:00 +1°C° 0 mm 2 mps 749 mmHg 90%
05:00 +1°C° 0 mm 2 mps 749 mmHg 89%
06:00 +1°C° 0 mm 2 mps 749 mmHg 89%
07:00 +2°C° 0 mm 2 mps 749 mmHg 87%
08:00 +2°C° 0 mm 2 mps 749 mmHg 84%
09:00 +3°C° 0 mm 2 mps 749 mmHg 82%
10:00 +3°C° 0 mm 2 mps 749 mmHg 79%
11:00 +4°C° 0 mm 2 mps 749 mmHg 76%
12:00 +5°C° 0 mm 2 mps 749 mmHg 74%
13:00 +4°C° 0 mm 2 mps 749 mmHg 77%
14:00 +4°C° 0 mm 2 mps 749 mmHg 80%
15:00 +3°C° 0 mm 2 mps 749 mmHg 83%
16:00 +3°C° 0 mm 2 mps 749 mmHg 86%
17:00 +2°C° 0 mm 2 mps 749 mmHg 89%
18:00 +2°C° 0 mm 2 mps 748 mmHg 92%
19:00 +2°C° 0.1 mm 2 mps 748 mmHg 92%
20:00 +2°C° 0.1 mm 2 mps 748 mmHg 92%
21:00 +1°C° 0.1 mm 3 mps 748 mmHg 92%
22:00 +2°C° 0.5 mm 3 mps 748 mmHg 93%
23:00 +1°C° 0.5 mm 4 mps 747 mmHg 93%

Day after tomorrow, 7 December, Monday

Time Temperature Precipitation Wind Pressure Humidity
00:00 +1°C° 0.5 mm 4 mps 747 mmHg 93%
01:00 +3°C° 0.9 mm 4 mps 746 mmHg 94%
02:00 +2°C° 0.9 mm 5 mps 746 mmHg 94%
03:00 +3°C° 0.9 mm 5 mps 745 mmHg 95%
04:00 +3°C° 0.8 mm 5 mps 745 mmHg 94%
05:00 +3°C° 0.8 mm 5 mps 745 mmHg 94%
06:00 +4°C° 0.8 mm 4 mps 745 mmHg 93%
07:00 +3°C° 0.7 mm 5 mps 745 mmHg 93%
08:00 +3°C° 0.7 mm 5 mps 745 mmHg 93%
09:00 +3°C° 0.7 mm 5 mps 745 mmHg 93%
10:00 +3°C° 0.5 mm 5 mps 745 mmHg 91%
11:00 +3°C° 0.5 mm 5 mps 745 mmHg 90%
12:00 +3°C° 0.5 mm 5 mps 745 mmHg 88%
13:00 +3°C° 0.4 mm 5 mps 745 mmHg 89%
14:00 +3°C° 0.4 mm 5 mps 745 mmHg 89%
15:00 +3°C° 0.4 mm 5 mps 746 mmHg 90%
16:00 +3°C° 0.2 mm 5 mps 746 mmHg 90%
17:00 +4°C° 0.2 mm 4 mps 747 mmHg 90%
18:00 +4°C° 0.2 mm 4 mps 747 mmHg 90%
19:00 +4°C° 0.2 mm 4 mps 748 mmHg 91%
20:00 +4°C° 0.2 mm 4 mps 748 mmHg 91%
21:00 +3°C° 0.2 mm 4 mps 749 mmHg 91%
22:00 +3°C° 0 mm 3 mps 749 mmHg 91%
23:00 +2°C° 0 mm 3 mps 749 mmHg 92%

8 December, Tuesday

Time Temperature Precipitation Wind Pressure Humidity
00:00 +2°C° 0 mm 3 mps 750 mmHg 92%
01:00 +2°C° 0 mm 3 mps 750 mmHg 92%
02:00 +2°C° 0 mm 2 mps 750 mmHg 92%
03:00 +2°C° 0 mm 2 mps 750 mmHg 91%
04:00 +1°C° 0 mm 2 mps 751 mmHg 91%
05:00 +1°C° 0 mm 2 mps 751 mmHg 91%
06:00 +1°C° 0 mm 2 mps 751 mmHg 91%
07:00 +1°C° 0 mm 2 mps 752 mmHg 90%
08:00 +2°C° 0 mm 2 mps 752 mmHg 90%
09:00 +2°C° 0 mm 2 mps 752 mmHg 89%
10:00 +4°C° 0 mm 1 mps 753 mmHg 85%
11:00 +4°C° 0 mm 1 mps 753 mmHg 81%
12:00 +5°C° 0 mm 1 mps 753 mmHg 78%
13:00 +5°C° 0 mm 1 mps 753 mmHg 80%
14:00 +4°C° 0 mm 0 mps 753 mmHg 83%
15:00 +3°C° 0 mm 0 mps 753 mmHg 85%
16:00 +3°C° 0 mm 0 mps 754 mmHg 86%
17:00 +3°C° 0 mm 0 mps 754 mmHg 87%
18:00 +2°C° 0 mm 0 mps 754 mmHg 88%
19:00 +2°C° 0 mm 0 mps 755 mmHg 88%
20:00 +2°C° 0 mm 0 mps 755 mmHg 88%
21:00 +3°C° 0 mm 1 mps 755 mmHg 88%
22:00 +2°C° 0 mm 0 mps 755 mmHg 89%
23:00 +2°C° 0 mm 0 mps 755 mmHg 89%

9 December, Wednesday

Time Temperature Precipitation Wind Pressure Humidity
00:00 +2°C° 0 mm 0 mps 756 mmHg 89%
01:00 +2°C° 0 mm 0 mps 756 mmHg 90%
02:00 +3°C° 0 mm 1 mps 756 mmHg 92%
03:00 +3°C° 0 mm 1 mps 756 mmHg 93%
04:00 +3°C° 0 mm 1 mps 756 mmHg 93%
05:00 +2°C° 0 mm 1 mps 756 mmHg 92%
06:00 +2°C° 0 mm 1 mps 756 mmHg 92%
07:00 +2°C° 0 mm 1 mps 756 mmHg 92%
08:00 +3°C° 0 mm 1 mps 757 mmHg 92%
09:00 +3°C° 0 mm 1 mps 757 mmHg 92%
10:00 +3°C° 0 mm 1 mps 757 mmHg 89%
11:00 +4°C° 0 mm 1 mps 757 mmHg 86%
12:00 +4°C° 0 mm 1 mps 757 mmHg 83%
13:00 +4°C° 0 mm 1 mps 757 mmHg 85%
14:00 +4°C° 0 mm 1 mps 757 mmHg 87%
15:00 +4°C° 0 mm 1 mps 757 mmHg 88%
16:00 +3°C° 0 mm 1 mps 757 mmHg 89%
17:00 +3°C° 0 mm 1 mps 757 mmHg 91%
18:00 +2°C° 0 mm 1 mps 757 mmHg 92%
19:00 +2°C° 0 mm 1 mps 757 mmHg 92%
20:00 +2°C° 0 mm 1 mps 757 mmHg 92%
21:00 +2°C° 0 mm 1 mps 757 mmHg 92%
22:00 +2°C° 0 mm 1 mps 757 mmHg 92%
23:00 +1°C° 0 mm 1 mps 757 mmHg 92%

10 December, Thursday

Time Temperature Precipitation Wind Pressure Humidity
00:00 +1°C° 0 mm 1 mps 756 mmHg 93%
01:00 0°C° 0 mm 0 mps 756 mmHg 92%
02:00 0°C° 0 mm 0 mps 756 mmHg 92%
03:00 0°C° 0 mm 0 mps 755 mmHg 92%
04:00 +1°C° 0 mm 0 mps 755 mmHg 93%
05:00 +1°C° 0 mm 0 mps 755 mmHg 93%
06:00 +1°C° 0 mm 0 mps 755 mmHg 94%
07:00 +1°C° 0 mm 0 mps 755 mmHg 94%
08:00 +1°C° 0 mm 0 mps 754 mmHg 93%
09:00 +2°C° 0 mm 1 mps 754 mmHg 93%
10:00 +3°C° 0 mm 1 mps 754 mmHg 90%
11:00 +3°C° 0 mm 1 mps 754 mmHg 87%
12:00 +3°C° 0 mm 1 mps 754 mmHg 84%
13:00 +3°C° 0 mm 1 mps 753 mmHg 86%
14:00 +3°C° 0 mm 1 mps 753 mmHg 87%
15:00 +3°C° 0 mm 1 mps 753 mmHg 88%
16:00 +2°C° 0 mm 1 mps 753 mmHg 89%
17:00 +2°C° 0 mm 1 mps 753 mmHg 91%
18:00 +1°C° 0 mm 1 mps 753 mmHg 92%
19:00 +1°C° 0 mm 1 mps 752 mmHg 92%
20:00 -1°C° 0 mm 2 mps 752 mmHg 92%
21:00 -1°C° 0 mm 2 mps 752 mmHg 93%
22:00 -1°C° 0 mm 2 mps 752 mmHg 93%
23:00 -1°C° 0 mm 2 mps 752 mmHg 94%
Show more

We Need Your Consent

Meteoprog and our Service Providers may store and access personal data such as cookies, device identifiers or other similar technologies on your device and process such data to personalise content and ads, as well as provide social media features and to analyse the traffic.

  • Store and/or access information on your device

    Cookies, device identifiers or other information can be stored or accessed on your device for the purposes indicated above.

  • Personalised ads and content, ad and content measurement, audience insights, and products development

    Ads and content can be personalised based on a profile. More data can be added to better personalise ads and content. Ad and content performance can be measured. Insights about the audience who saw the ads and content can be derived. Such data can be used to develop or improve user’s experience, systems and software.

By clicking ‘I Agree’ you will allow the use of indicated cookies, device identifiers, web beacons or other similar technologies. Your settings can be changed in the browser on your device.

For certain purposes, legitimate interests may be relied on, rather than consent. You can read more about this in our Privacy and Cookie Policy.